Overview Statistics Trail Chart Weather Telemetry Raw packets
 

This is the latest recevied weather packets stored in our database for station/object W7TRD. If no packets are shown the sender has not sent any weather packets the latest 10 day(s).

<< 44 45 46 47 48 49 50 >>
Time Temp. Humidity Pressure Rain* Wind** Luminosity Snow
1788319868 18.33° C 74% 1012.2 hPa 0 mm - 0 W/m² -
1788319566 18.33° C 74% 1012.2 hPa 0 mm - 0 W/m² -
1788319261 18.33° C 74% 1012.2 hPa 0 mm - 0 W/m² -
1788318961 18.33° C 74% 1012.2 hPa 0 mm - 0 W/m² -
1788318657 18.33° C 74% 1012.3 hPa 0 mm - 0 W/m² -
1788318352 18.89° C 73% 1012.3 hPa 0 mm - 0 W/m² -
1788318052 18.89° C 71% 1012.2 hPa 0 mm - 0 W/m² -
1788317752 18.89° C 71% 1012.3 hPa 0 mm - 1 W/m² -
1788317447 18.89° C 71% 1012.2 hPa 0 mm - 1 W/m² -
1788317143 18.89° C 72% 1012.3 hPa 0 mm - 4 W/m² -
1788316842 18.89° C 72% 1012 hPa 0 mm - 7 W/m² -
1788316538 18.89° C 72% 1012.3 hPa 0 mm - 11 W/m² -
1788316234 18.89° C 72% 1012.1 hPa 0 mm - 15 W/m² -
1788315933 18.89° C 71% 1012.1 hPa 0 mm - 17 W/m² -
1788315629 18.89° C 71% 1012.2 hPa 0 mm - 17 W/m² -
1788315324 18.89° C 71% 1012.1 hPa 0 mm - 15 W/m² -
1788315019 19.44° C 70% 1012.2 hPa 0 mm - 20 W/m² -
1788314715 19.44° C 69% 1012.1 hPa 0 mm - 33 W/m² -
1788314411 19.44° C 69% 1011.9 hPa 0 mm - 38 W/m² -
1788314106 18.89° C 70% 1011.9 hPa 0 mm - 29 W/m² -
1788313807 19.44° C 70% 1012 hPa 0 mm - 27 W/m² -
1788313503 18.89° C 69% 1012 hPa 0 mm - 28 W/m² -
1788313198 19.44° C 70% 1012.1 hPa 0 mm - 25 W/m² -
1788312893 19.44° C 70% 1012 hPa 0 mm - 23 W/m² -
1788312588 19.44° C 71% 1011.9 hPa 0 mm - 18 W/m² -

* Rain latest hour (hover to see other rain measurements)
** Current wind speed in m/s (hover to see current wind gust speed)